QPF
0.05 0.08 0.12 0.10 0.04 0.02 0.01 0.01 0.02 0.02 0.00 0.01 0.00 0.00 0.00 0.00 0.00 0.00 0.01 0.01 0.01 0.00 0.00 0.00 0.03 0.01 0.00 0.00 0.00 0.00 0.00 0.00 0.00 0.00 0.01 0.01 0.00 0.00 0.00 0.00 0.00 0.00 0.00
0.00 0.02 0.08 0.06 0.02 0.00 0.00 0.00 0.00 0.00 0.00 0.00 0.00 0.00 0.00 0.00 0.00 0.00 0.00 0.01 0.01 0.00 0.00 0.01 0.00 0.00 0.00 0.00 0.00 0.00 0.00 0.00 0.00 0.01 0.00 0.00 0.00 0.00 0.00 0.00 0.00 0.00 0.01
0.00 0.00 0.01 0.03 0.01 0.00 0.00 0.00 0.00 0.00 0.00 0.01 0.01 0.01 0.00 0.00 0.00 0.01 0.01 0.00 0.00 0.00 0.00 0.00 0.00 0.00 0.00 0.00 0.00 0.00 0.00 0.00 0.00 0.00 0.00 0.00 0.00 0.00 0.00 0.00 0.00 0.00 0.01
0.00 0.00 0.00 0.00 0.00 0.01 0.00 0.00 0.00 0.00 0.00 0.02 0.02 0.00 0.00 0.00 0.00 0.00 0.00 0.01 0.01 0.00 0.00 0.00 0.00 0.00 0.00 0.00 0.00 0.00 0.00 0.00 0.00 0.00 0.00 0.00 0.00 0.00 0.00 0.00 0.00 0.00 0.00
0.00 0.00 0.00 0.01 0.00 0.00 0.01 0.01 0.01 0.00 0.00 0.00 0.00 0.00 0.00 0.01 0.00 0.00 0.00 0.00 0.00 0.00 0.00 0.00 0.00 0.00 0.00 0.00 0.00 0.00 0.00 0.00 0.00 0.00 0.00 0.00 0.00 0.00 0.00 0.00 0.00 0.00 0.00
0.00 0.00 0.00 0.05 0.03 0.03 0.02 0.01 0.01 0.01 0.00 0.00 0.01 0.00 0.00 0.00 0.01 0.01 0.00 0.00 0.00 0.00 0.00 0.00 0.00 0.00 0.00 0.00 0.00 0.00 0.00 0.00 0.00 0.00 0.00 0.00 0.00 0.00 0.00 0.00 0.00 0.00 0.00
0.00 0.00 0.00 0.03 0.01 0.05 0.03 0.01 0.00 0.00 0.00 0.00 0.00 0.00 0.00 0.00 0.00 0.00 0.00 0.00 0.00 0.00 0.00 0.00 0.00 0.00 0.00 0.00 0.00 0.00 0.00 0.00 0.00 0.00 0.00 0.00 0.00 0.00 0.00 0.00 0.00 0.00 0.00
0.00 0.00 0.00 0.00 0.02 0.03 0.02 0.00 0.00 0.00 0.00 0.00 0.00 0.00 0.00 0.00 0.00 0.00 0.00 0.00 0.00 0.00 0.00 0.00 0.00 0.00 0.00 0.00 0.00 0.00 0.00 0.00 0.00 0.00 0.00 0.00 0.01 0.00 0.00 0.00 0.00 0.00 0.00
0.00 0.00 0.00 0.00 0.02 0.01 0.00 0.00 0.00 0.00 0.00 0.00 0.00 0.00 0.00 0.00 0.00 0.00 0.00 0.00 0.00 0.00 0.00 0.00 0.00 0.00 0.00 0.00 0.00 0.00 0.00 0.00 0.00 0.00 0.00 0.00 0.01 0.00 0.00 0.00 0.00 0.01 0.03
0.00 0.00 0.00 0.00 0.00 0.00 0.00 0.00 0.00 0.00 0.00 0.00 0.00 0.00 0.00 0.00 0.00 0.00 0.00 0.00 0.00 0.00 0.00 0.00 0.00 0.00 0.00 0.00 0.00 0.00 0.00 0.00 0.00 0.00 0.00 0.00 0.00 0.00 0.02 0.01 0.00 0.06 0.08
0.00 0.00 0.00 0.00 0.00 0.00 0.00 0.00 0.00 0.00 0.00 0.00 0.00 0.00 0.00 0.00 0.00 0.00 0.00 0.00 0.01 0.02 0.01 0.01 0.01 0.01 0.00 0.00 0.00 0.00 0.00 0.00 0.00 0.00 0.00 0.00 0.00 0.00 0.00 0.00 0.02 0.02 0.02
0.00 0.00 0.00 0.00 0.00 0.00 0.00 0.00 0.00 0.00 0.00 0.00 0.00 0.00 0.00 0.00 0.00 0.00 0.00 0.00 0.00 0.00 0.00 0.00 0.00 0.00 0.00 0.00 0.00 0.00 0.00 0.00 0.00 0.00 0.00 0.00 0.00 0.00 0.00 0.00 0.01 0.02 0.00
0.00 0.00 0.00 0.00 0.00 0.00 0.00 0.00 0.00 0.00 0.00 0.00 0.00 0.00 0.00 0.00 0.00 0.00 0.00 0.00 0.00 0.00 0.00 0.00 0.00 0.00 0.00 0.00 0.00 0.00 0.00 0.00 0.00 0.00 0.00 0.00 0.00 0.00 0.00 0.01 0.01 0.02 0.02
0.00 0.00 0.00 0.00 0.00 0.00 0.00 0.00 0.00 0.00 0.00 0.00 0.00 0.00 0.00 0.00 0.00 0.00 0.00 0.00 0.00 0.00 0.00 0.00 0.00 0.00 0.00 0.00 0.00 0.00 0.00 0.00 0.00 0.00 0.00 0.00 0.00 0.00 0.00 0.00 0.01 0.02 0.02
0.00 0.00 0.00 0.00 0.00 0.00 0.00 0.00 0.00 0.00 0.00 0.00 0.00 0.00 0.00 0.00 0.00 0.00 0.00 0.00 0.00 0.00 0.00 0.00 0.00 0.00 0.00 0.00 0.00 0.00 0.00 0.00 0.00 0.00 0.00 0.00 0.00 0.00 0.00 0.01 0.01 0.01 0.01
0.00 0.00 0.00 0.00 0.00 0.00 0.00 0.00 0.00 0.00 0.00 0.00 0.00 0.00 0.00 0.00 0.00 0.00 0.00 0.00 0.00 0.00 0.00 0.00 0.00 0.00 0.00 0.00 0.00 0.00 0.00 0.00 0.00 0.00 0.00 0.00 0.00 0.00 0.00 0.00 0.01 0.01 0.01
0.00 0.00 0.00 0.00 0.00 0.00 0.00 0.00 0.00 0.00 0.00 0.00 0.00 0.00 0.00 0.00 0.00 0.00 0.00 0.00 0.00 0.00 0.00 0.00 0.00 0.00 0.00 0.00 0.00 0.00 0.00 0.00 0.00 0.00 0.00 0.00 0.00 0.00 0.00 0.00 0.00 0.00 0.00
0.00 0.00 0.00 0.00 0.00 0.00 0.00 0.00 0.00 0.00 0.00 0.00 0.00 0.00 0.00 0.00 0.00 0.00 0.00 0.00 0.00 0.00 0.00 0.00 0.00 0.00 0.00 0.00 0.00 0.00 0.00 0.00 0.00 0.00 0.00 0.00 0.00 0.00 0.00 0.00 0.00 0.00 0.00
0.00 0.00 0.00 0.00 0.00 0.00 0.00 0.00 0.00 0.00 0.00 0.00 0.00 0.00 0.00 0.00 0.00 0.00 0.00 0.00 0.00 0.00 0.00 0.00 0.00 0.01 0.01 0.00 0.00 0.00 0.00 0.00 0.00 0.00 0.00 0.00 0.00 0.00 0.00 0.00 0.00 0.00 0.00
0.00 0.00 0.00 0.00 0.00 0.00 0.00 0.00 0.00 0.00 0.00 0.00 0.00 0.00 0.00 0.00 0.00 0.00 0.00 0.00 0.00 0.00 0.00 0.02 0.03 0.02 0.01 0.00 0.00 0.00 0.00 0.00 0.00 0.00 0.00 0.00 0.00 0.00 0.00 0.00 0.00 0.00 0.00
0.00 0.00 0.00 0.00 0.00 0.00 0.00 0.00 0.00 0.00 0.00 0.00 0.00 0.00 0.00 0.00 0.00 0.00 0.00 0.00 0.00 0.00 0.02 0.04 0.03 0.00 0.00 0.00 0.00 0.00 0.00 0.00 0.00 0.00 0.00 0.00 0.00 0.00 0.00 0.00 0.00 0.00 0.00
0.00 0.00 0.00 0.00 0.00 0.00 0.00 0.00 0.00 0.00 0.00 0.00 0.00 0.00 0.00 0.00 0.00 0.00 0.00 0.00 0.00 0.00 0.08 0.02 0.00 0.01 0.00 0.00 0.00 0.00 0.00 0.00 0.00 0.00 0.00 0.00 0.00 0.00 0.00 0.00 0.00 0.00 0.00
0.00 0.00 0.00 0.00 0.00 0.00 0.00 0.00 0.00 0.00 0.00 0.00 0.00 0.00 0.00 0.00 0.00 0.00 0.00 0.00 0.00 0.00 0.04 0.00 0.00 0.03 0.02 0.00 0.00 0.00 0.00 0.00 0.00 0.00 0.00 0.00 0.00 0.00 0.00 0.00 0.00 0.00 0.00
0.00 0.00 0.00 0.00 0.00 0.00 0.00 0.00 0.00 0.00 0.00 0.00 0.00 0.00 0.00 0.00 0.00 0.00 0.00 0.00 0.00 0.00 0.01 0.00 0.00 0.02 0.00 0.00 0.00 0.00 0.00 0.00 0.00 0.00 0.00 0.00 0.00 0.00 0.00 0.00 0.00 0.00 0.00
0.00 0.00 0.00 0.00 0.00 0.00 0.00 0.00 0.00 0.00 0.00 0.00 0.00 0.00 0.00 0.00 0.00 0.00 0.00 0.00 0.00 0.00 0.00 0.00 0.00 0.01 0.01 0.04 0.00 0.00 0.00 0.00 0.00 0.00 0.00 0.00 0.00 0.01 0.00 0.00 0.00 0.00 0.00
0.00 0.00 0.00 0.00 0.00 0.00 0.00 0.00 0.00 0.00 0.00 0.00 0.00 0.00 0.00 0.00 0.00 0.00 0.00 0.00 0.00 0.00 0.00 0.00 0.00 0.03 0.07 0.12 0.00 0.01 0.02 0.00 0.00 0.00 0.01 0.00 0.01 0.00 0.00 0.00 0.00 0.00 0.00
MSLP
1016.47 1016.18 1016.05 1015.82 1015.53 1015.46 1015.39 1015.41 1015.59 1015.80 1016.00 1016.18 1016.39 1016.54 1016.68 1016.72 1016.76 1016.87 1016.94 1017.06 1016.99 1017.07 1017.15 1017.25 1017.34 1017.37 1017.41 1017.38 1017.50 1017.54 1017.55 1017.66 1017.72 1017.73 1017.73 1017.78 1017.80 1017.82 1017.87 1017.89 1017.63 1016.67 1017.99
1015.70 1015.60 1016.14 1015.90 1015.76 1015.66 1015.75 1015.80 1016.06 1016.12 1016.33 1016.48 1016.65 1016.72 1016.86 1016.88 1017.00 1017.10 1017.16 1017.26 1017.27 1017.38 1017.38 1017.40 1017.52 1017.61 1017.66 1017.67 1017.66 1017.69 1017.74 1017.83 1017.84 1017.72 1017.66 1017.52 1017.66 1017.89 1017.94 1017.94 1017.81 1017.57 1018.08
1015.01 1015.27 1015.70 1016.13 1015.97 1015.94 1016.07 1016.25 1016.28 1016.47 1016.64 1016.71 1016.85 1016.98 1017.10 1017.23 1017.27 1017.31 1017.40 1017.56 1017.67 1017.68 1017.70 1017.77 1017.86 1017.89 1017.90 1017.92 1017.94 1017.91 1017.90 1017.89 1017.88 1017.82 1017.53 1016.49 1016.47 1017.74 1017.92 1017.98 1017.98 1018.11 1018.26
1014.06 1014.65 1015.24 1016.10 1016.08 1016.17 1016.32 1016.42 1016.59 1016.75 1016.86 1017.02 1017.08 1017.22 1017.42 1017.47 1017.46 1017.58 1017.68 1017.80 1017.93 1017.94 1017.98 1018.03 1018.11 1018.14 1018.16 1018.18 1018.17 1018.15 1018.05 1017.98 1017.89 1017.78 1016.59 1016.38 1016.25 1017.58 1017.81 1017.92 1017.98 1018.01 1018.15
1013.80 1014.27 1015.62 1016.46 1016.59 1016.54 1016.55 1016.72 1016.97 1017.07 1017.17 1017.34 1017.40 1017.52 1017.54 1017.62 1017.69 1017.77 1017.90 1018.00 1018.06 1018.14 1018.12 1018.17 1018.20 1018.25 1018.30 1018.29 1018.27 1018.26 1018.11 1017.96 1017.85 1017.40 1016.50 1016.40 1016.35 1017.03 1017.70 1017.87 1017.92 1017.99 1018.10
1013.76 1014.16 1016.22 1016.48 1016.67 1016.84 1016.87 1017.01 1017.17 1017.35 1017.55 1017.58 1017.68 1017.81 1017.84 1017.82 1017.84 1017.99 1018.07 1018.12 1018.22 1018.29 1018.30 1018.28 1018.30 1018.28 1018.27 1018.28 1018.23 1018.18 1018.08 1017.98 1017.71 1016.26 1016.36 1016.18 1016.57 1017.20 1017.52 1017.75 1017.85 1017.99 1018.17
1014.34 1014.81 1015.89 1016.58 1016.88 1017.13 1017.19 1017.29 1017.48 1017.72 1017.81 1017.84 1017.88 1017.96 1017.98 1018.04 1018.08 1018.17 1018.27 1018.31 1018.35 1018.41 1018.48 1018.49 1018.45 1018.38 1018.31 1018.26 1018.25 1018.15 1018.02 1017.83 1017.22 1016.03 1016.10 1016.10 1016.01 1016.95 1017.51 1017.71 1017.86 1017.98 1018.14
1014.03 1014.26 1016.05 1016.80 1017.03 1017.37 1017.44 1017.65 1017.84 1017.99 1018.01 1018.01 1018.00 1018.03 1018.17 1018.24 1018.32 1018.41 1018.49 1018.56 1018.54 1018.55 1018.59 1018.58 1018.48 1018.38 1018.30 1018.17 1018.08 1017.98 1017.88 1017.75 1016.59 1015.53 1015.74 1015.60 1016.97 1017.23 1017.44 1017.65 1017.83 1017.99 1018.08
1014.22 1014.83 1015.81 1016.30 1017.18 1017.48 1017.68 1017.89 1017.99 1018.04 1018.01 1018.12 1018.20 1018.28 1018.40 1018.44 1018.50 1018.58 1018.65 1018.66 1018.61 1018.56 1018.55 1018.51 1018.45 1018.40 1018.26 1018.08 1017.97 1017.86 1017.73 1017.55 1016.79 1015.29 1015.80 1015.62 1017.06 1017.36 1017.48 1017.60 1017.79 1017.88 1017.97
1014.84 1015.29 1015.53 1016.18 1016.54 1016.86 1017.40 1018.02 1018.06 1018.10 1018.18 1018.24 1018.40 1018.50 1018.54 1018.56 1018.56 1018.61 1018.56 1018.61 1018.60 1018.53 1018.46 1018.40 1018.32 1018.30 1018.21 1018.02 1017.86 1017.73 1017.56 1016.93 1015.78 1015.14 1015.34 1015.96 1017.07 1017.23 1017.28 1017.42 1017.57 1017.72 1017.74
1015.26 1015.59 1015.80 1016.04 1016.48 1016.92 1017.22 1017.84 1018.14 1018.26 1018.32 1018.36 1018.44 1018.56 1018.34 1017.27 1017.61 1017.63 1018.33 1018.56 1018.56 1018.45 1018.39 1018.36 1018.29 1018.16 1017.78 1017.33 1017.26 1017.39 1017.06 1015.35 1015.36 1015.28 1015.10 1016.31 1017.02 1017.27 1017.30 1017.36 1017.44 1017.56 1017.58
1014.97 1015.34 1015.89 1015.98 1016.36 1016.82 1016.77 1017.63 1017.44 1017.65 1017.41 1017.43 1017.66 1017.96 1017.38 1017.78 1017.86 1017.63 1018.13 1018.41 1018.34 1018.36 1018.21 1018.10 1017.94 1017.51 1017.17 1015.82 1015.75 1016.23 1015.55 1015.55 1015.18 1015.25 1015.16 1016.31 1016.85 1017.14 1017.25 1017.30 1017.35 1017.44 1017.40
1014.78 1015.13 1015.75 1016.04 1016.58 1016.59 1016.62 1017.06 1017.07 1017.09 1017.42 1017.79 1018.04 1018.04 1017.92 1017.78 1017.83 1017.30 1017.28 1017.08 1017.33 1017.88 1016.76 1016.93 1016.61 1016.45 1016.73 1016.52 1016.25 1016.04 1015.92 1015.45 1015.10 1014.98 1015.28 1016.23 1016.63 1016.82 1016.93 1017.00 1017.05 1017.20 1017.37
1014.67 1015.06 1015.61 1016.06 1016.70 1016.60 1016.78 1016.74 1016.82 1016.75 1017.17 1017.12 1017.50 1018.11 1018.00 1017.35 1017.76 1017.60 1017.38 1017.24 1017.23 1017.09 1017.32 1017.08 1016.84 1017.31 1017.05 1016.88 1016.77 1016.57 1016.01 1015.63 1015.36 1015.24 1015.26 1016.06 1016.34 1016.44 1016.48 1016.57 1016.71 1016.75 1016.75
1014.57 1015.01 1015.52 1016.10 1016.71 1016.90 1017.06 1016.70 1016.72 1016.81 1017.03 1017.06 1017.60 1017.86 1017.63 1017.45 1017.76 1017.64 1017.75 1017.31 1017.24 1017.16 1017.02 1017.07 1017.27 1017.40 1017.24 1016.79 1016.72 1016.57 1016.27 1015.84 1015.66 1015.28 1015.08 1015.88 1016.30 1016.35 1016.40 1016.38 1016.32 1016.30 1016.42
1014.44 1014.87 1015.42 1016.10 1016.56 1016.91 1017.03 1017.20 1017.14 1017.03 1017.13 1017.26 1017.23 1017.41 1017.91 1017.62 1017.84 1017.64 1017.47 1017.31 1017.21 1017.30 1017.32 1017.43 1017.63 1017.33 1017.15 1016.80 1016.44 1016.34 1016.27 1015.83 1015.60 1015.60 1014.98 1015.06 1015.99 1016.26 1016.25 1016.18 1016.10 1015.96 1015.87
1014.25 1014.70 1015.17 1015.82 1016.21 1016.75 1016.96 1017.13 1017.05 1016.87 1016.88 1016.98 1017.11 1017.68 1017.83 1017.92 1017.86 1018.14 1017.49 1017.35 1017.38 1017.59 1017.62 1017.31 1017.23 1017.05 1016.60 1016.28 1016.30 1015.89 1015.83 1015.80 1015.55 1015.56 1015.09 1014.89 1015.01 1015.89 1016.35 1016.34 1016.22 1016.11 1015.91
1013.88 1014.55 1015.02 1015.40 1015.93 1016.58 1016.74 1016.88 1016.73 1016.63 1016.78 1016.76 1016.82 1017.03 1017.64 1017.78 1017.94 1017.95 1017.36 1017.27 1017.64 1017.43 1017.36 1016.96 1017.06 1017.06 1017.11 1017.11 1016.68 1016.37 1016.11 1015.79 1015.75 1015.71 1015.41 1015.32 1015.06 1014.73 1015.90 1016.30 1016.29 1016.15 1016.15
1013.70 1014.36 1014.87 1015.30 1015.70 1016.26 1016.59 1016.60 1016.73 1016.78 1016.94 1016.58 1016.59 1016.68 1017.29 1017.52 1017.68 1017.90 1017.32 1017.26 1017.75 1017.28 1017.08 1016.86 1017.26 1018.03 1017.74 1017.18 1016.46 1016.11 1016.20 1015.85 1015.54 1015.03 1015.40 1015.36 1015.46 1015.14 1014.95 1016.08 1016.06 1016.10 1016.15
1013.41 1014.11 1014.67 1015.15 1015.54 1016.07 1016.21 1016.50 1016.26 1016.32 1016.45 1016.44 1016.49 1016.48 1017.10 1017.26 1017.68 1017.75 1017.17 1017.48 1017.59 1017.04 1016.82 1017.07 1017.86 1017.95 1017.18 1016.30 1016.00 1015.95 1015.60 1015.64 1015.55 1015.43 1015.37 1015.13 1015.58 1015.63 1015.41 1015.58 1015.30 1015.28 1015.84
1012.80 1013.57 1014.20 1014.73 1015.21 1015.67 1015.86 1015.90 1015.91 1015.80 1016.00 1016.10 1016.18 1016.58 1016.96 1017.16 1017.43 1017.62 1017.10 1017.16 1017.24 1017.16 1017.11 1017.72 1017.89 1017.60 1016.35 1017.39 1016.38 1015.57 1015.80 1015.55 1015.84 1015.49 1015.52 1015.36 1015.62 1015.50 1015.62 1015.85 1015.50 1015.33 1015.06
1012.12 1012.92 1013.65 1014.20 1014.76 1015.21 1015.30 1015.54 1015.51 1015.56 1015.46 1015.51 1015.70 1016.12 1016.62 1016.82 1017.09 1017.32 1017.38 1017.01 1016.80 1016.71 1017.53 1017.79 1017.81 1017.17 1016.68 1017.30 1016.85 1016.36 1015.96 1015.53 1015.38 1015.42 1015.38 1015.85 1016.13 1016.19 1015.94 1015.64 1015.88 1015.95 1015.67
1011.25 1012.11 1012.84 1013.58 1014.08 1014.58 1014.70 1015.21 1015.54 1015.72 1015.78 1015.58 1015.72 1015.94 1016.07 1016.56 1016.85 1017.01 1017.04 1016.86 1016.68 1016.94 1016.48 1017.50 1017.40 1017.26 1016.52 1017.20 1017.92 1017.10 1016.24 1015.77 1015.58 1015.36 1015.69 1015.91 1016.26 1016.01 1015.55 1015.39 1015.52 1015.54 1015.52
1010.21 1011.16 1012.04 1012.79 1013.39 1013.94 1014.48 1014.49 1014.84 1014.80 1014.75 1014.70 1014.95 1015.09 1015.44 1015.96 1016.39 1016.54 1016.56 1016.29 1016.22 1015.98 1016.58 1017.09 1017.27 1017.02 1017.43 1017.91 1018.19 1018.06 1017.93 1017.28 1016.09 1015.13 1015.16 1015.45 1015.89 1015.62 1015.30 1015.36 1014.99 1015.10 1015.22
1009.26 1009.97 1010.81 1011.86 1012.61 1013.09 1013.70 1014.12 1014.25 1014.67 1014.28 1014.46 1014.52 1014.78 1015.42 1015.82 1015.96 1015.93 1015.76 1015.71 1015.77 1016.02 1016.10 1016.94 1017.09 1017.44 1017.63 1018.17 1018.57 1017.79 1017.80 1017.30 1016.91 1016.34 1014.91 1014.64 1014.80 1014.59 1014.84 1014.76 1014.52 1014.69 1014.66
1008.37 1009.09 1009.78 1010.74 1011.60 1012.28 1012.79 1013.44 1013.79 1013.77 1013.98 1013.89 1014.00 1014.24 1014.68 1014.87 1014.99 1015.33 1015.04 1015.02 1015.16 1015.50 1016.05 1016.79 1017.30 1017.84 1018.19 1018.79 1018.37 1018.00 1017.44 1016.81 1016.37 1015.95 1015.77 1014.84 1014.40 1014.69 1014.27 1014.27 1014.46 1014.44 1014.46
Thickness
5760 5759 5760 5765 5769 5771 5773 5773 5773 5773 5770 5770 5768 5768 5766 5765 5766 5765 5764 5762 5763 5762 5761 5760 5758 5759 5759 5759 5758 5758 5757 5756 5755 5754 5754 5754 5754 5753 5753 5753 5755 5762 5752
5769 5768 5764 5766 5769 5772 5772 5773 5771 5770 5769 5768 5767 5767 5766 5766 5765 5764 5763 5762 5761 5760 5759 5759 5758 5757 5757 5757 5758 5757 5756 5756 5755 5756 5756 5757 5755 5754 5753 5753 5754 5755 5752
5775 5773 5769 5767 5770 5772 5772 5770 5770 5768 5767 5767 5766 5766 5764 5763 5763 5762 5761 5759 5758 5758 5757 5757 5757 5756 5756 5756 5757 5757 5756 5756 5756 5757 5759 5766 5765 5755 5753 5753 5753 5752 5750
5785 5780 5775 5771 5772 5772 5770 5769 5768 5767 5767 5766 5765 5764 5762 5762 5762 5761 5759 5758 5756 5756 5756 5756 5755 5755 5755 5755 5755 5755 5756 5756 5757 5758 5767 5768 5768 5759 5755 5754 5753 5753 5752
5787 5784 5774 5769 5768 5769 5769 5768 5767 5766 5765 5764 5764 5762 5762 5761 5760 5759 5758 5757 5756 5755 5754 5753 5753 5753 5753 5754 5755 5756 5757 5758 5758 5762 5768 5769 5768 5764 5758 5756 5754 5753 5752
5789 5786 5771 5770 5769 5768 5768 5768 5767 5766 5764 5764 5762 5761 5761 5760 5759 5758 5757 5756 5755 5754 5753 5752 5752 5752 5753 5755 5757 5757 5758 5759 5761 5771 5770 5771 5767 5762 5759 5756 5755 5753 5751
5786 5782 5774 5770 5769 5767 5767 5767 5767 5764 5764 5764 5764 5762 5761 5760 5759 5757 5757 5756 5755 5754 5752 5751 5751 5752 5753 5756 5757 5758 5760 5761 5765 5773 5772 5771 5771 5764 5758 5756 5753 5752 5750
5789 5787 5773 5769 5769 5767 5768 5766 5765 5764 5765 5765 5765 5764 5762 5761 5759 5757 5757 5756 5755 5753 5752 5751 5751 5753 5755 5756 5758 5760 5761 5761 5769 5777 5774 5774 5762 5757 5757 5755 5753 5751 5749
5788 5783 5776 5774 5768 5767 5767 5766 5766 5766 5767 5766 5765 5763 5762 5761 5760 5759 5758 5757 5757 5756 5755 5753 5752 5752 5755 5758 5760 5761 5762 5763 5768 5779 5773 5772 5761 5756 5754 5753 5750 5747 5744
5785 5781 5780 5777 5774 5772 5769 5766 5767 5767 5766 5765 5764 5763 5762 5762 5762 5761 5761 5759 5759 5758 5757 5756 5756 5756 5757 5760 5762 5763 5764 5769 5775 5778 5775 5769 5760 5758 5756 5754 5751 5748 5745
5780 5780 5780 5779 5775 5772 5772 5768 5767 5767 5766 5766 5765 5764 5766 5772 5770 5770 5765 5762 5761 5761 5760 5759 5759 5760 5763 5767 5768 5766 5768 5779 5777 5776 5776 5767 5760 5757 5755 5752 5750 5748 5745
5779 5781 5780 5779 5776 5775 5776 5770 5773 5772 5774 5774 5772 5770 5774 5771 5770 5772 5769 5766 5766 5764 5764 5764 5765 5767 5770 5778 5778 5775 5777 5776 5778 5776 5774 5765 5759 5755 5752 5750 5747 5745 5744
5782 5783 5781 5778 5776 5778 5779 5776 5777 5777 5775 5773 5772 5771 5771 5772 5772 5776 5776 5777 5774 5770 5776 5774 5775 5775 5771 5773 5774 5775 5774 5777 5778 5777 5774 5766 5760 5756 5752 5750 5747 5744 5739
5783 5783 5782 5779 5777 5779 5779 5781 5781 5782 5779 5780 5777 5772 5772 5778 5774 5774 5775 5776 5776 5775 5773 5774 5774 5769 5770 5770 5769 5770 5773 5775 5775 5774 5772 5765 5761 5758 5755 5752 5748 5745 5743
5783 5784 5784 5781 5778 5779 5779 5784 5785 5784 5783 5783 5778 5776 5777 5778 5775 5775 5773 5776 5776 5776 5776 5775 5771 5769 5768 5771 5770 5769 5770 5772 5772 5772 5771 5764 5759 5757 5754 5752 5749 5746 5742
5787 5787 5787 5782 5781 5780 5781 5782 5784 5785 5785 5783 5783 5781 5777 5778 5775 5775 5776 5777 5776 5774 5774 5773 5771 5772 5772 5773 5775 5774 5772 5774 5774 5771 5773 5770 5761 5755 5752 5750 5748 5746 5745
5791 5792 5790 5787 5785 5784 5784 5784 5786 5788 5788 5787 5785 5780 5779 5778 5777 5775 5779 5779 5777 5775 5774 5776 5777 5779 5781 5781 5778 5778 5775 5773 5773 5770 5771 5770 5767 5757 5748 5745 5742 5740 5738
5797 5794 5794 5794 5790 5787 5787 5787 5789 5791 5790 5789 5789 5787 5782 5781 5778 5778 5781 5781 5777 5777 5777 5782 5782 5777 5776 5772 5772 5771 5770 5769 5767 5764 5764 5762 5761 5761 5750 5742 5738 5735 5730
5802 5799 5797 5797 5794 5791 5790 5791 5791 5792 5790 5792 5792 5792 5787 5784 5781 5778 5782 5782 5777 5779 5782 5785 5778 5770 5768 5767 5768 5768 5764 5765 5767 5767 5762 5760 5755 5753 5750 5740 5735 5731 5726
5806 5804 5802 5800 5798 5795 5795 5793 5796 5797 5795 5795 5794 5794 5789 5787 5782 5780 5783 5780 5779 5785 5787 5783 5773 5770 5773 5774 5770 5761 5765 5762 5762 5762 5759 5758 5751 5745 5741 5736 5734 5731 5723
5811 5807 5805 5803 5802 5799 5797 5796 5798 5798 5799 5798 5797 5794 5791 5788 5784 5781 5784 5783 5783 5784 5782 5775 5771 5771 5777 5763 5763 5765 5760 5764 5756 5757 5750 5749 5744 5742 5736 5728 5727 5725 5721
5814 5811 5808 5807 5805 5804 5804 5803 5804 5804 5806 5804 5802 5798 5793 5791 5787 5784 5782 5785 5787 5787 5778 5774 5770 5772 5773 5764 5758 5755 5746 5753 5756 5754 5750 5741 5735 5730 5727 5724 5718 5713 5710
5820 5817 5814 5811 5810 5809 5811 5808 5805 5804 5803 5802 5801 5800 5797 5792 5789 5786 5785 5786 5787 5784 5786 5775 5773 5769 5771 5764 5753 5751 5748 5746 5749 5749 5742 5736 5728 5724 5722 5718 5713 5709 5705
5828 5826 5822 5818 5815 5813 5812 5812 5807 5805 5803 5809 5808 5807 5802 5796 5792 5789 5789 5791 5790 5792 5782 5776 5773 5771 5763 5751 5747 5745 5743 5742 5741 5739 5740 5734 5726 5721 5718 5712 5709 5705 5699
5839 5835 5831 5825 5822 5821 5817 5815 5813 5806 5813 5813 5812 5807 5801 5797 5795 5794 5796 5796 5794 5790 5787 5776 5773 5764 5757 5746 5741 5742 5736 5738 5735 5729 5731 5731 5729 5727 5718 5711 5708 5703 5698
5847 5844 5840 5832 5827 5826 5824 5819 5816 5815 5813 5813 5811 5808 5805 5804 5804 5799 5801 5800 5797 5792 5784 5774 5768 5757 5747 5733 5737 5733 5732 5731 5728 5727 5722 5727 5725 5720 5720 5712 5703 5697 5692